星链-2053 (STARLINK-2053 )

导读

STARLINK-2053是美国SpaceX公司星链星座的成员卫星,于2021年2月16日发射入轨,运行在低地球轨道,属于星链全球卫星互联网星座的组成部分。星链星座旨在通过大规模低轨卫星组网,为全球提供高速低延迟互联网服务,重点覆盖地面基础设施难以到达的偏远、海洋区域,同时也承担部分应急与军事通信任务。

基本信息
目录编号:
47663
目录名称:
STARLINK-2053
国际标识:
2021-012AV
轨道中心:
EARTH
卫星名称:
星链-2053
卫星全名:
星链-2053 (STARLINK-2053 )
卫星状态:
已陨落 最后检测时间 2025-05-27
发射日期:
2021-02-16 UTC
国别 :
美国 (US)
星等 :
--
该卫星已列入 空间交会检测服务 Space Conjunction Data Service (SCDS) ,当前飞行风险评估等级: 无高风险
轨道信息
数据来源 国际轨道数据
星历时间: 2025-05-27T04:02:18+0800
轨道信息已过期472天
半长轴: 6525.139km
偏心率: 0.0006882
轨道倾角: 53.023°
近地点辐角 250.509°
升交点赤经 124.059°
平近点角 189.888°
近地点: 142.513km
远地点: 151.495km
周期: 87.427分钟
每日圈数: 16.470931
详细信息
固有亮度:
5
最大亮度:
2.5
卫星平台:
Starlink V1.0
覆盖范围:
全球
运营商:
太空探索技术公司
运营商所在国:
美国
制造商(研发单位):
太空探索技术公司
制造商所在国:
美国
使用方式:
暂无
卫星简介
星链(Starlink)计划是由太空探索技术公司(SpaceX)提出的一个巨型低轨卫星互联网星座项目,计划在2019年至2024年间在太空搭建由约1.2万颗卫星组成的“星链”网络,其中1584颗将部署在地球上空550千米处的近地轨道,并从2020年开始工作。该卫星仍在工作。
与全量物体交会距离演化趋势
与全量物体交会风险概率演化趋势